Theta_e
265 265 265 265 265 264 263 263 263 263 262 262 263 263 262 262 262 262 262 262 262 261 260 260 260 260 260 260 259 260 260 259 259 259 259 260 260 260 261 261 261 261 261 261 261 261 261 261 261 260 260 260 260 260 260 260 260 260 260 261 261 261 262
265 265 264 264 264 263 263 262 262 262 262 262 263 263 263 262 262 262 262 261 261 261 260 260 260 260 260 260 259 259 259 259 259 259 259 259 259 260 260 261 261 261 261 261 261 261 260 260 260 260 260 260 260 260 260 260 260 260 260 260 261 261 261
264 264 263 263 263 263 263 262 262 262 262 262 263 262 263 263 262 262 261 261 261 261 260 259 260 260 260 259 259 259 259 259 258 258 259 259 259 260 260 260 261 261 260 260 260 260 260 260 260 260 260 259 259 259 259 259 260 260 260 260 261 261 262
263 263 263 263 263 263 263 263 262 262 263 263 263 262 262 262 262 262 261 260 260 260 259 259 260 260 260 259 259 259 259 258 258 258 259 259 259 260 260 260 260 260 260 260 260 260 260 259 259 259 259 259 259 259 259 259 260 260 260 260 261 261 261
263 263 263 263 263 263 263 263 262 262 263 263 262 262 262 262 262 261 261 260 260 259 259 259 259 260 259 259 258 258 258 258 258 259 259 259 259 259 260 260 260 260 260 259 259 259 259 259 259 259 259 259 259 259 259 259 259 260 260 260 261 261 261
263 263 263 263 263 263 263 263 263 262 262 263 262 262 261 261 261 261 260 260 260 259 259 259 259 259 259 259 259 259 259 259 259 259 259 259 259 259 260 260 260 260 259 259 259 259 259 259 259 259 259 259 259 259 259 259 259 260 260 260 260 260 260
263 263 263 263 263 264 264 263 263 262 262 262 262 261 261 261 261 261 260 260 260 260 260 259 259 259 259 259 259 259 259 259 259 259 259 259 259 259 259 260 260 259 259 259 259 258 258 258 258 258 259 259 259 259 259 259 259 259 259 259 259 259 259
263 263 263 263 263 264 263 263 262 262 262 262 261 260 260 260 261 260 260 260 260 260 260 260 259 259 260 260 260 260 260 260 260 260 259 260 259 259 259 259 259 259 259 259 259 258 258 258 258 258 258 258 259 259 259 259 259 259 259 259 259 259 259
263 263 263 263 263 263 263 263 262 262 262 261 261 260 260 260 260 260 260 260 260 260 260 260 260 260 260 260 260 261 261 260 260 260 260 260 260 260 260 260 259 259 259 259 258 258 258 258 258 258 258 258 258 258 258 258 258 258 258 258 258 259 259
262 263 263 263 263 263 263 263 262 262 262 261 260 260 260 260 260 260 260 260 260 260 260 260 261 261 261 261 261 261 261 261 260 260 260 260 260 260 260 260 260 260 259 259 258 258 258 258 258 258 258 258 258 258 258 258 258 258 258 258 258 258 258
262 262 262 262 262 263 263 263 262 262 262 261 261 261 261 261 261 261 261 261 261 261 261 261 261 261 261 261 261 261 262 261 261 261 261 261 261 261 261 261 260 260 260 259 258 258 258 257 257 257 257 257 257 257 257 257 257 257 258 258 257 257 258
262 262 262 261 261 262 263 263 263 262 262 261 261 262 262 262 262 262 262 262 261 261 261 262 262 262 262 262 262 262 262 262 262 262 261 261 261 261 261 261 261 260 260 259 259 258 258 257 257 257 257 257 257 257 257 257 257 257 257 257 257 257 257
261 262 262 261 261 262 263 263 263 262 262 261 261 262 262 262 262 262 262 262 261 261 261 261 261 261 261 261 261 261 261 261 261 261 261 261 261 261 260 260 260 260 259 259 259 258 258 257 257 257 257 257 257 257 256 256 257 257 257 257 257 257 257
261 261 262 261 261 261 263 263 263 262 262 261 261 262 263 262 262 262 261 261 261 260 260 260 260 259 259 259 259 259 260 260 260 260 260 260 260 259 259 259 259 258 258 258 258 257 257 257 257 257 256 256 256 256 256 256 256 256 257 257 257 257 257
261 261 261 261 260 260 262 264 263 262 262 261 261 262 262 262 261 261 260 260 259 259 259 259 259 258 258 258 258 258 259 259 259 259 259 259 259 258 258 258 258 257 257 257 257 256 256 256 256 256 256 257 257 257 257 257 257 257 257 257 257 257 257
260 260 260 261 260 260 262 264 262 261 261 261 260 261 261 260 260 259 259 259 258 258 258 258 258 258 258 258 258 258 258 258 258 258 258 258 258 258 258 257 257 257 257 257 257 257 257 257 258 258 258 258 258 258 258 258 257 257 257 257 257 257 257
260 260 260 260 260 260 261 263 262 261 261 261 260 260 260 259 259 259 258 258 258 258 258 258 258 258 257 257 258 258 258 258 258 258 258 258 258 258 257 257 257 257 257 257 257 258 258 258 258 259 259 259 259 259 258 258 257 257 257 257 257 257 257
259 260 260 260 260 260 260 261 262 261 261 261 260 260 260 259 259 258 258 258 258 258 258 257 257 257 257 257 257 257 258 258 258 259 259 258 258 258 257 257 257 257 256 256 256 256 257 257 257 257 257 257 257 257 257 257 257 257 257 257 256 256 256
259 260 261 260 260 260 259 260 262 262 261 261 260 259 259 259 259 258 258 258 258 257 257 257 257 257 256 257 257 257 257 258 258 258 258 258 258 257 257 257 257 256 256 256 256 256 255 255 255 256 256 256 256 256 256 256 256 256 256 256 256 256 255
258 259 261 261 260 260 259 260 261 262 261 260 260 259 259 259 258 258 258 257 257 257 256 256 256 256 256 256 256 256 256 257 257 258 258 258 258 257 257 257 256 256 255 255 255 254 254 254 254 255 255 255 255 256 256 256 256 256 256 256 256 256 255
258 258 260 261 260 259 260 260 260 261 261 260 259 259 259 258 258 258 258 257 257 256 256 256 255 255 255 255 255 255 256 256 257 258 257 257 257 256 256 255 255 255 254 254 254 254 254 254 254 254 254 254 255 255 255 255 256 256 256 256 256 255 255
258 258 259 260 259 259 260 260 259 260 260 260 259 259 258 258 258 258 257 257 256 256 255 255 255 255 255 255 255 255 255 256 256 256 256 255 255 255 254 254 254 254 254 253 253 253 253 253 253 253 254 254 254 254 255 255 255 255 256 256 255 255 255
257 257 258 259 259 259 259 259 259 259 259 259 259 259 258 258 257 257 257 256 256 256 255 255 255 254 254 254 254 254 254 255 255 254 254 254 254 254 254 254 254 253 253 253 253 253 253 253 253 253 253 254 254 254 254 254 255 255 255 255 255 255 255
257 257 257 258 259 259 259 259 259 259 259 259 259 258 258 258 257 257 257 256 256 255 255 254 254 254 254 254 254 254 254 254 254 254 254 254 254 254 253 253 253 253 253 253 253 253 253 253 253 253 253 253 254 254 254 254 254 254 255 254 254 254 254
257 257 258 258 258 259 259 259 259 259 259 258 258 258 257 257 257 257 256 256 255 255 254 254 254 253 254 254 254 254 254 253 253 253 253 253 253 253 253 253 253 253 253 253 253 253 253 253 253 253 253 253 253 253 253 254 254 254 254 254 253 253 253
258 258 258 258 258 259 259 259 259 259 258 258 258 257 257 257 257 256 256 255 254 254 253 253 253 253 253 253 253 253 253 253 253 253 253 253 253 253 254 254 253 253 253 253 253 252 253 253 253 253 253 253 253 253 253 253 253 253 253 253 253 252 252
258 258 258 258 258 259 259 259 258 258 258 257 257 257 256 256 256 255 255 254 253 253 253 253 253 253 253 253 253 253 252 253 253 253 253 254 254 254 254 254 254 253 253 253 253 253 253 253 253 253 253 253 253 253 253 252 252 252 252 252 252 252 252
258 258 258 258 258 258 258 258 258 257 257 257 256 256 256 255 255 254 253 253 253 253 253 253 253 253 253 252 252 252 252 253 253 253 253 254 254 254 254 254 254 254 254 253 253 253 253 253 253 253 253 252 252 252 252 252 252 252 252 252 252 252 251
258 258 258 258 258 257 257 257 257 257 257 256 256 255 255 254 254 254 253 253 253 253 253 253 253 252 252 252 252 252 252 252 253 253 253 254 254 254 254 254 254 254 253 253 253 253 253 253 253 253 252 252 252 252 252 252 252 251 252 252 251 251 251
258 258 258 258 257 257 257 257 257 257 256 256 255 255 254 254 254 254 254 253 253 253 253 253 252 252 252 252 252 252 252 252 253 253 253 254 254 254 254 254 254 253 253 253 253 253 253 253 253 252 252 252 252 252 252 251 251 251 251 251 251 251 251
258 258 258 257 257 257 257 257 256 256 256 255 255 254 254 254 254 254 254 253 253 253 253 252 252 252 252 252 252 252 252 252 253 253 253 254 254 254 254 253 253 253 253 253 253 253 253 253 252 252 252 252 252 252 251 251 251 251 251 251 251 251 250
258 258 257 257 257 257 256 256 256 256 255 255 255 254 254 254 254 254 253 253 253 253 252 252 252 252 252 252 252 252 252 253 253 253 253 253 253 253 253 253 253 253 253 253 253 253 252 252 252 252 252 252 252 252 251 251 251 251 251 251 250 250 250
258 257 257 256 256 256 256 256 256 255 255 255 254 254 254 254 253 253 253 253 253 252 252 252 252 252 252 252 252 252 253 253 253 253 253 253 253 253 253 253 253 253 253 253 253 252 252 252 252 252 252 252 252 251 251 251 251 251 251 250 250 250 250
258 257 256 256 256 256 256 255 255 255 255 255 254 254 254 254 253 253 253 253 252 252 252 252 252 252 252 252 252 253 253 253 253 253 253 253 253 253 253 253 253 253 253 253 252 252 252 252 252 252 252 252 251 251 251 251 251 251 250 250 250 250 250
257 257 256 256 256 256 255 255 255 255 255 255 254 254 254 254 253 253 253 252 252 252 252 252 252 252 252 253 253 253 253 253 253 253 253 253 253 253 253 253 253 253 252 252 252 252 252 252 252 252 252 252 251 251 251 251 251 251 250 250 250 250 250
256 256 256 256 255 255 255 255 255 255 255 255 254 254 254 254 253 253 253 252 252 252 252 253 253 253 253 253 253 253 253 253 253 253 253 253 253 253 253 253 253 252 252 252 252 252 252 252 252 252 252 251 251 251 251 251 251 251 250 250 250 250 250
Wind_Speed
13 14 15 16 17 17 17 18 17 17 16 18 19 19 19 19 19 21 22 23 23 22 21 22 23 24 24 22 23 24 23 22 22 21 21 21 22 23 22 24 24 22 28 34 30 29 33 34 35 35 33 35 37 36 34 35 35 35 35 36 36 34 33
14 15 16 17 18 18 19 19 18 18 18 18 20 20 21 21 21 23 24 24 24 24 23 23 25 26 26 24 24 25 25 24 24 23 23 23 22 25 24 23 26 26 27 33 32 31 34 34 32 33 34 34 36 37 36 36 36 34 33 34 34 35 35
16 16 17 18 19 19 20 20 20 19 19 19 20 21 22 22 22 23 24 25 25 25 24 24 26 27 27 25 25 27 26 25 25 24 24 25 24 26 27 25 26 28 28 32 35 33 32 32 32 33 35 36 36 36 36 36 34 32 33 34 33 34 34
17 17 18 19 20 20 21 22 21 21 20 20 21 22 23 23 23 24 25 26 26 26 25 26 27 28 27 26 26 28 28 26 26 25 24 26 26 26 29 28 27 29 29 31 35 35 32 33 34 34 35 37 37 36 34 33 32 33 34 33 31 30 32
18 18 19 20 20 21 22 22 23 22 22 21 21 22 24 24 24 25 26 26 27 26 26 27 28 29 28 27 28 29 29 28 27 26 25 27 29 28 29 29 28 30 31 32 36 38 35 33 34 35 35 35 35 35 33 31 32 33 33 31 29 29 32
19 19 20 21 21 22 23 23 23 24 23 22 22 23 24 24 25 26 27 28 28 28 28 28 29 29 28 28 30 31 31 30 29 29 28 29 31 31 30 31 31 32 32 33 36 36 36 34 32 33 35 33 30 32 33 33 33 31 28 29 30 32 34
20 20 21 22 22 22 23 24 24 24 24 23 23 23 24 25 26 27 28 29 29 29 30 30 30 30 30 30 31 33 33 32 32 31 32 32 33 32 32 33 33 33 32 33 34 33 33 34 31 31 35 34 30 31 32 31 30 30 28 29 31 33 33
20 21 22 23 23 23 24 24 25 25 24 23 23 23 25 25 26 28 29 30 31 31 31 32 32 32 33 33 33 34 34 34 34 33 34 34 32 32 32 33 32 31 31 31 32 31 31 32 31 30 33 33 28 28 28 26 26 29 31 32 32 31 31
20 22 23 23 24 24 24 26 26 25 24 24 24 24 24 25 26 28 30 31 32 32 33 34 34 34 35 35 34 34 34 33 33 34 34 33 32 31 32 33 32 31 31 31 29 29 30 29 29 29 30 29 26 26 28 28 28 30 32 33 34 32 30
21 22 23 24 24 25 26 27 27 25 24 24 25 24 25 26 28 30 31 33 34 35 35 35 35 36 35 35 34 34 33 33 32 33 35 35 34 34 33 34 33 31 31 30 29 29 28 27 29 30 28 29 30 29 29 29 28 30 31 31 31 31 28
22 22 23 24 25 26 27 27 27 25 25 24 23 24 25 28 30 30 31 33 35 36 35 35 35 34 33 33 33 34 34 34 34 34 35 36 37 37 36 36 36 35 33 31 30 30 28 27 31 33 29 29 32 31 29 29 28 28 30 28 23 23 23
23 23 24 25 26 28 28 28 27 26 25 25 23 23 25 27 29 30 31 32 33 34 34 34 34 33 33 33 33 34 35 36 36 35 35 36 37 38 38 37 38 38 36 33 32 33 31 29 33 36 32 29 31 31 30 30 30 29 30 29 23 22 25
23 24 25 25 27 28 29 29 28 26 26 26 25 24 25 27 29 30 31 32 33 34 34 35 35 35 35 34 33 33 35 35 36 35 35 36 36 37 37 37 39 40 38 37 37 37 37 34 34 36 35 31 31 32 31 30 32 31 31 30 28 28 30
24 25 26 27 27 29 31 30 29 28 27 26 25 24 24 27 29 30 31 32 34 36 36 36 36 35 36 35 33 34 34 34 34 34 34 34 35 36 37 38 39 39 39 39 39 40 42 40 37 39 41 39 36 36 36 35 36 35 33 33 34 35 35
25 26 27 28 28 30 32 32 30 29 29 27 25 24 24 27 29 31 32 33 35 36 36 35 35 35 35 35 34 34 33 32 32 33 34 35 35 35 35 36 37 37 38 40 40 42 45 45 43 43 45 45 42 42 42 41 41 40 37 38 38 36 33
26 27 29 29 30 31 33 33 31 30 30 29 26 24 25 28 30 30 32 33 34 34 34 34 34 34 35 35 34 34 32 29 30 31 33 35 35 35 35 35 35 35 35 36 38 40 42 43 43 43 43 43 41 40 40 38 39 37 34 34 32 28 26
27 29 30 31 30 31 33 34 33 31 31 30 27 24 26 28 30 30 32 33 33 34 33 33 32 32 33 33 33 33 30 27 28 30 33 35 35 35 35 35 34 34 33 34 35 37 38 39 39 39 38 38 38 36 34 31 30 29 27 26 22 17 21
29 30 30 31 31 31 33 35 35 32 31 31 27 25 25 27 28 30 31 31 32 32 32 32 32 30 30 31 32 31 29 27 28 30 32 33 33 34 35 35 34 33 34 33 33 34 34 34 35 35 36 36 35 34 32 30 31 29 27 26 21 18 22
29 31 32 32 32 31 32 35 35 32 31 30 27 24 24 26 27 29 30 30 32 32 31 31 31 29 27 28 28 28 28 27 27 29 31 32 33 34 35 33 31 30 31 31 32 32 33 34 34 33 34 34 32 31 30 30 33 32 30 29 27 23 20
30 32 34 33 33 33 33 34 34 32 30 28 26 24 23 24 27 29 29 30 31 31 31 29 29 28 27 26 26 26 26 26 26 27 29 30 31 32 32 31 30 31 31 34 36 37 37 37 36 34 34 33 32 30 29 30 32 33 32 32 30 27 21
30 32 35 35 34 34 34 33 32 31 30 28 26 24 22 23 26 28 29 30 30 30 30 29 29 28 27 25 25 25 26 26 26 26 28 30 30 32 33 33 35 35 35 36 38 38 37 36 34 32 32 31 30 30 29 29 30 32 33 32 31 28 25
31 32 35 36 35 34 33 32 30 29 29 28 26 24 22 23 26 26 26 29 30 29 29 29 28 29 28 25 25 25 25 26 26 27 29 32 33 34 34 33 35 36 35 36 36 35 34 33 31 30 29 28 27 28 27 28 29 30 31 32 32 31 29
30 30 34 36 35 34 32 30 28 28 28 28 26 25 24 24 25 24 24 27 29 29 29 29 29 30 29 26 25 26 27 28 29 30 32 33 33 34 34 33 33 33 33 33 33 32 31 30 28 28 28 27 26 26 26 26 28 28 28 27 28 29 30
29 28 31 34 34 34 33 30 28 27 26 25 25 25 26 25 23 22 22 25 27 28 28 29 30 30 28 27 27 28 29 29 30 31 32 32 32 32 31 31 31 31 30 30 30 29 28 28 27 26 27 26 26 27 26 27 27 28 28 28 29 30 31
28 28 30 31 33 34 34 31 29 27 26 25 26 26 25 23 21 20 20 22 25 27 28 30 29 28 27 27 27 28 29 30 31 32 32 31 30 30 30 30 30 30 29 29 28 27 27 27 27 26 26 27 27 27 27 27 27 28 29 30 32 33 32
29 28 29 30 31 33 34 32 30 28 28 27 26 24 21 19 19 22 23 25 27 28 28 28 27 26 26 27 27 28 30 32 33 33 32 31 29 29 29 29 29 29 28 28 28 28 28 28 28 28 28 27 27 27 26 26 27 28 29 29 29 30 29
28 28 28 29 31 32 33 33 32 31 30 28 25 21 21 22 24 26 27 28 28 28 27 28 28 28 28 29 30 30 30 31 30 30 29 28 27 27 26 26 25 26 26 27 28 28 29 29 29 29 28 27 27 27 26 25 26 27 28 27 26 26 26
29 29 29 30 32 32 33 34 34 32 29 26 24 23 25 27 27 27 27 27 27 27 28 30 31 31 30 30 30 29 28 27 27 27 27 27 26 25 25 24 24 25 26 28 29 29 30 30 28 27 27 26 26 26 25 24 24 26 27 26 25 23 23
32 32 32 32 33 32 32 34 36 34 31 29 28 27 28 28 28 27 27 27 26 27 30 31 31 30 29 28 27 27 26 26 26 26 26 26 25 24 24 24 25 27 28 28 28 29 29 28 27 27 26 26 26 26 25 24 24 25 25 25 24 22 22
32 32 31 33 36 35 34 37 39 37 35 35 33 29 27 26 26 25 26 26 25 27 29 30 29 29 27 26 26 26 26 25 25 25 26 25 25 24 24 25 25 26 27 27 27 28 28 27 27 27 26 25 25 26 25 24 24 24 24 24 23 23 23
29 31 31 32 36 37 37 37 38 36 35 34 32 28 26 25 25 24 25 24 25 27 29 27 27 28 27 26 26 26 26 26 25 25 26 25 25 25 25 25 26 26 26 27 27 27 27 27 27 27 26 25 26 26 25 24 23 23 23 23 23 23 23
28 31 31 30 31 33 35 35 34 33 32 31 30 28 28 27 27 26 25 23 23 27 29 27 26 28 27 26 26 27 26 26 26 26 26 26 26 26 25 25 26 26 26 26 27 27 27 27 28 28 27 27 26 26 25 23 22 22 22 22 23 23 23
29 30 30 29 28 28 30 31 31 30 30 29 29 29 28 28 27 26 24 23 24 27 29 27 27 28 27 27 27 27 27 27 27 27 27 27 27 28 28 27 27 27 27 27 28 28 28 28 28 28 27 27 26 25 25 24 22 22 22 21 22 22 22
32 30 28 28 27 27 28 29 29 28 28 28 28 27 26 27 29 28 25 24 25 28 29 29 28 28 28 28 28 28 28 28 28 27 27 28 28 29 29 29 28 27 28 28 29 29 29 29 28 28 27 26 25 24 24 23 22 21 21 20 20 21 21
34 32 29 28 28 28 28 28 27 27 26 26 26 26 25 26 28 29 27 25 25 27 29 29 28 28 28 28 28 28 28 28 29 29 28 29 29 30 30 29 28 28 28 29 29 29 29 29 28 28 27 27 26 24 24 23 22 22 21 21 21 21 21
34 33 31 30 28 26 25 25 24 24 24 23 23 23 23 25 27 28 27 27 26 26 27 28 29 29 29 29 29 29 29 30 30 30 30 29 30 30 30 29 29 29 29 29 29 30 30 29 29 29 28 27 26 25 24 24 24 23 22 22 22 22 22
Wind_Direction
303 302 301 302 303 304 305 305 307 307 307 307 308 307 305 304 303 302 303 304 304 303 301 299 300 301 301 300 299 298 297 294 292 289 282 276 273 270 266 267 267 270 281 287 289 292 296 301 304 304 305 306 307 308 310 311 311 311 313 314 315 312 310
299 299 299 301 303 304 303 303 305 306 305 304 305 304 304 303 302 302 302 301 301 302 301 299 298 299 301 299 297 295 294 292 291 289 283 278 274 270 266 264 266 270 279 286 290 293 296 299 301 301 303 305 305 306 309 309 309 310 311 311 311 309 309
298 299 300 300 302 303 303 303 304 304 304 303 302 301 301 302 301 299 298 297 297 298 298 296 295 298 299 297 294 293 291 289 288 285 280 277 273 269 267 264 265 268 274 283 290 293 295 298 299 298 300 302 302 304 306 306 306 308 309 309 309 307 306
299 300 300 301 303 304 305 304 303 303 303 303 301 298 298 299 298 296 294 293 293 295 294 293 293 296 298 295 291 290 289 287 286 283 279 276 273 268 267 266 264 266 271 280 287 290 291 295 297 296 298 301 301 302 303 302 303 305 306 307 307 306 303
299 300 301 302 304 305 305 304 303 301 302 303 300 297 296 296 296 295 293 292 291 292 291 291 291 293 295 292 288 287 286 285 284 283 279 275 273 270 268 267 265 266 271 276 281 286 290 292 293 294 295 298 300 302 302 301 301 304 305 305 304 303 302
300 301 301 302 303 304 304 304 301 300 301 302 300 297 295 295 296 294 292 291 291 291 290 290 290 291 291 289 286 285 285 285 284 282 279 276 273 272 269 267 266 268 273 275 276 282 288 289 290 293 294 296 298 299 300 301 302 302 302 302 303 303 303
299 300 301 302 303 304 304 304 301 299 300 300 299 297 295 296 296 293 291 291 291 291 291 291 291 291 290 288 286 285 285 285 283 280 278 276 275 273 270 266 266 270 273 275 276 279 283 286 288 289 290 293 296 295 294 298 302 302 302 302 303 303 303
299 301 301 302 303 305 304 302 300 299 299 300 299 297 294 294 294 293 292 292 292 293 294 294 293 291 291 289 288 287 286 284 282 278 276 274 273 270 268 265 266 270 273 274 276 278 280 283 286 286 287 291 294 292 291 295 298 299 300 302 301 300 300
300 301 302 303 303 304 303 299 298 299 300 300 299 297 296 295 295 294 293 292 293 294 294 294 293 292 292 292 291 290 288 283 278 274 271 272 272 268 266 265 266 270 273 275 276 277 280 282 282 282 285 288 288 287 290 296 296 293 295 298 298 296 296
301 301 301 303 304 303 302 299 298 300 302 302 299 296 296 296 295 293 292 291 292 293 293 293 292 292 293 294 293 291 287 283 276 270 267 268 269 268 267 268 268 270 272 275 277 276 278 280 278 278 281 283 285 287 289 293 293 291 294 297 296 295 295
301 302 302 303 302 302 302 301 301 303 305 304 296 287 287 288 288 288 287 288 290 291 292 291 291 291 292 292 291 289 287 284 280 274 269 267 266 266 266 267 269 272 274 276 277 276 275 275 276 278 280 281 284 287 288 289 289 289 292 293 292 294 296
301 303 303 301 300 301 303 303 304 305 305 303 296 287 283 283 283 284 284 285 286 288 288 288 288 288 287 286 285 284 283 282 280 278 275 272 270 268 267 266 267 271 276 278 279 278 275 272 275 280 281 280 283 286 287 287 286 285 286 285 284 284 287
301 302 302 301 300 303 304 304 306 306 305 304 299 291 286 284 284 284 284 283 284 284 283 283 284 284 283 282 281 280 280 280 280 279 278 276 273 271 270 269 268 269 272 275 277 278 277 275 276 280 280 281 283 285 286 285 283 282 280 278 278 278 282
301 302 303 302 301 303 304 305 306 307 307 305 299 291 287 286 285 284 282 281 281 281 281 281 282 283 283 283 282 281 281 281 282 282 280 278 275 273 273 273 273 272 272 272 272 273 275 276 276 277 280 282 281 279 278 278 277 278 277 276 277 278 282
300 301 302 302 300 300 302 305 306 306 306 303 296 289 287 286 284 282 282 281 282 282 282 282 283 283 284 285 284 284 284 284 284 284 282 280 278 277 277 276 276 276 276 275 274 273 274 277 277 277 279 281 280 276 275 274 274 276 278 279 279 280 280
299 300 300 301 299 296 299 305 306 304 306 304 297 291 288 286 285 284 283 284 285 285 285 285 285 285 286 286 287 288 288 285 284 284 283 282 280 281 280 279 280 280 278 277 277 277 278 280 281 281 282 282 282 279 278 277 275 274 274 275 277 277 275
297 298 297 298 297 295 297 303 306 304 305 306 300 293 289 288 287 286 285 285 286 287 286 287 287 287 288 288 289 290 289 285 284 284 283 282 283 283 283 283 285 286 283 281 280 280 281 282 283 284 284 284 285 285 287 288 282 276 274 273 274 275 276
296 298 297 296 296 296 295 300 305 305 304 307 304 295 290 289 288 286 285 285 286 287 286 287 288 288 287 287 288 289 288 286 286 285 284 285 286 287 286 287 290 291 289 288 286 284 284 283 283 283 282 282 282 282 285 286 282 281 281 278 275 279 285
294 296 298 295 294 294 292 296 304 306 305 308 307 297 290 289 286 283 283 284 285 286 286 286 287 288 287 286 288 288 288 288 287 286 286 287 287 286 286 290 294 295 294 295 293 291 290 289 287 286 285 284 282 279 276 273 273 277 278 276 276 278 284
291 293 296 296 294 294 295 296 303 309 310 309 308 300 290 285 282 281 282 284 285 286 286 287 287 288 289 289 288 288 288 287 287 286 287 288 287 286 288 294 298 297 296 296 295 293 293 291 290 289 287 286 285 282 278 272 271 272 272 272 274 274 272
292 292 295 298 296 297 300 301 304 309 312 311 309 304 292 283 282 283 283 284 283 283 284 286 287 290 292 292 290 288 288 287 287 287 288 287 286 286 290 295 297 296 296 296 295 295 294 292 292 290 288 286 284 283 281 278 275 274 271 268 269 271 270
292 292 296 300 300 300 304 306 306 308 310 310 308 303 295 288 287 287 285 282 281 281 283 285 288 291 293 292 289 288 288 287 287 288 286 285 286 288 290 292 293 293 295 294 294 294 293 292 293 292 290 288 286 284 284 282 280 279 275 270 267 266 266
292 293 295 298 300 301 303 305 305 305 306 306 304 302 298 295 291 287 282 278 279 281 283 286 290 293 293 291 288 287 287 286 287 287 286 286 287 288 289 290 290 290 291 291 292 292 291 291 292 292 290 290 288 288 287 286 285 285 282 277 272 269 268
291 291 291 294 297 299 301 302 302 303 302 301 300 299 296 294 291 287 280 277 278 280 284 288 291 293 292 290 287 287 287 286 286 286 286 286 287 287 288 287 287 287 288 288 288 287 287 289 290 290 290 290 291 291 291 289 288 286 285 284 283 282 280
288 288 288 290 293 296 300 301 301 301 300 297 298 298 295 291 287 282 278 277 280 283 286 290 291 291 291 290 289 289 289 288 288 288 288 288 286 285 284 283 282 283 284 283 282 282 283 286 288 289 290 291 293 293 292 292 291 290 289 289 288 285 281
285 286 287 288 290 293 298 300 300 299 298 299 300 298 291 284 279 276 277 280 285 288 290 290 290 290 290 290 290 290 290 289 290 291 290 288 286 283 281 279 278 279 278 277 278 279 281 284 287 289 290 291 291 291 290 292 294 294 293 292 289 285 281
284 284 285 287 289 292 295 297 297 297 298 301 301 294 286 283 284 285 287 288 290 292 292 292 291 291 290 290 290 290 289 289 290 290 289 288 286 283 281 279 277 276 275 275 278 280 282 285 288 289 289 289 288 287 287 290 293 293 293 292 290 286 283
283 282 283 286 288 291 294 294 294 296 298 300 298 292 289 291 292 293 292 292 293 294 294 293 293 292 292 293 292 292 291 289 288 288 286 286 285 283 281 279 278 276 275 277 279 281 283 286 287 286 286 286 286 285 286 288 291 291 291 293 292 287 284
282 283 285 286 287 288 288 289 292 296 297 296 294 292 290 291 292 292 292 291 293 294 294 293 292 291 292 292 291 290 289 288 287 286 284 283 282 281 279 277 276 275 275 276 278 280 282 284 285 285 285 284 283 283 284 286 288 288 289 291 290 285 283
282 285 286 286 286 286 284 284 290 295 295 294 294 291 287 286 286 287 288 289 291 291 289 288 288 287 287 287 287 286 285 285 285 284 282 282 281 279 278 277 274 274 275 277 277 277 279 281 283 284 284 284 282 282 283 283 283 283 285 286 286 284 283
287 289 288 285 286 288 287 286 290 294 295 294 294 290 285 285 286 285 286 288 290 288 284 282 282 282 282 282 282 281 281 282 282 280 280 281 281 279 277 275 274 274 276 276 276 275 276 278 279 281 282 282 282 282 282 281 279 279 279 280 280 281 281
290 291 291 289 287 287 288 290 292 293 293 292 290 288 286 286 286 286 286 287 286 281 279 278 277 278 279 280 279 278 279 279 278 277 278 279 279 279 277 275 275 277 277 275 275 274 274 275 277 278 278 279 279 280 279 279 278 277 276 277 278 277 278
294 293 294 293 291 289 289 291 293 292 291 289 288 288 289 289 288 287 286 284 280 276 275 275 274 274 275 276 275 276 278 278 276 276 277 277 276 277 277 277 278 278 276 274 273 273 273 274 275 275 275 275 275 275 275 275 275 274 274 275 276 276 277
301 301 300 299 297 296 295 294 294 294 293 291 290 290 292 292 291 287 282 277 273 271 272 272 272 271 272 272 273 275 276 276 276 276 276 276 276 277 278 279 279 277 275 273 273 272 271 271 272 272 272 273 274 273 273 272 272 272 272 272 274 277 278
301 303 304 302 301 300 297 295 295 296 295 291 288 288 290 289 285 282 279 275 269 267 268 269 268 269 271 272 273 274 274 274 276 276 276 276 277 278 278 279 278 275 274 273 272 271 270 270 270 270 270 271 272 271 270 270 270 270 270 270 272 275 277
298 301 303 302 300 298 297 296 296 295 292 286 282 282 282 278 275 275 276 275 271 268 267 267 267 268 270 272 273 273 274 274 275 276 276 276 277 277 278 277 276 275 275 274 272 271 271 270 269 269 269 269 269 268 268 269 269 269 269 268 268 271 273